This demonstration page uses our WeatherBlox Daily Observations layout. Learn more.

Left ArrowRight Arrow

41.55636, -103.73856

Hourly Observations for August 9, 2022

Temp ( °F °C ) Dew Point ( °F °C ) Humidity (%) Winds ( mph kmh ) Pressure ( in mb ) Visibility ( mi km ) Precip ( " mm )
12:58 am 00:58 Clear 73 22.5 58 14.6 61 61 SW 21 33 29.93 1013 10 16 0.00 0.00
1:58 am 01:58 Clear 71 21.9 59 15.2 66 66 SW 24 39 29.92 1013 10 16 0.00 0.00
2:58 am 02:58 Clear 71 21.5 60 15.8 70 70 SW 24 39 29.91 1013 10 16 0.00 0.00
3:58 am 03:58 Clear 70 20.9 60 15.4 71 71 SW 22 35 29.92 1013 10 16 0.00 0.00
4:58 am 04:58 Clear 68 20.2 60 15.4 74 74 SW 9 15 29.94 1014 10 16 0.00 0.00
5:58 am 05:58 Sunny 65 18.3 59 15 81 81 SW 7 11 29.98 1015 10 16 0.00 0.00
6:58 am 06:58 Sunny 65 18.6 60 15.3 81 81 WSW 9 15 29.98 1015 10 16 0.00 0.00
7:58 am 07:58 Sunny 71 21.8 60 15.4 67 67 NNW 6 9 30.00 1016 10 16 0.00 0.00
9:58 am 09:58 Sunny 80 26.7 59 14.8 48 48 Calm 30.00 1016 10 16 0.00 0.00
10:58 am 10:58 Sunny 85 29.7 57 13.8 38 38 SE 8 13 29.99 1016 10 16 0.00 0.00
11:58 am 11:58 Sunny 91 32.9 53 11.9 28 28 ESE 9 15 29.97 1015 10 16 0.00 0.00
12:58 pm 12:58 Mostly Sunny 93 33.8 47 8.4 21 21 E 10 17 29.96 1015 10 16 0.00 0.00
1:58 pm 13:58 Mostly Sunny 94 34.2 42 5.6 17 17 E 12 19 29.95 1014 10 16 0.00 0.00
2:58 pm 14:58 Mostly Sunny 93 34 39 3.7 15 15 Calm 29.94 1014 10 16 0.00 0.00
3:58 pm 15:58 Cloudy 93 34 37 2.7 14 14 ESE 10 17 29.93 1014 10 16 0.00 0.00
4:58 pm 16:58 Sunny 92 33.2 36 2.1 14 14 Calm 29.93 1014 10 16 0.00 0.00
5:58 pm 17:58 Mostly Cloudy 94 34.7 38 3.3 14 14 E 12 19 29.93 1014 10 16 0.00 0.00
6:58 pm 18:58 Mostly Sunny 91 32.8 37 2.7 15 15 ESE 16 26 29.94 1014 10 16 0.00 0.00
7:58 pm 19:58 Sunny 83 28.6 39 4.1 21 21 SE 9 15 29.96 1015 10 16 0.00 0.00
8:58 pm 20:58 Clear 81 27.3 37 3 21 21 S 14 22 29.97 1015 10 16 0.00 0.00
9:58 pm 21:58 Clear 81 27 46 7.9 30 30 S 18 30 29.98 1015 10 16 0.00 0.00

Powered by AerisWeather